GW1572 Weather Reports


Display with metric or nautical units.
time (UTC)temp
F
wind
direction
speed
MPH
gust
MPH
rain 1hr
in
rain 24hr
in
rain mn
in
humidity
%
barometer
mb
20260902170647 93 73 1.0 2.0 0.00 0.00 0.00 64 1010.4
20260902170024 93 317 3.0 4.0 0.00 0.00 0.00 67 1010.4
20260902165424 93 209 1.0 1.0 0.00 0.00 0.00 68 1010.4
20260902164207 92 320 2.0 2.0 0.00 0.00 0.00 67 1010.8
20260902163612 93 195 1.0 2.0 0.00 0.00 0.00 70 1010.8
20260902163010 92 151 0.0 1.0 0.00 0.00 0.00 67 1010.8
20260902162424 92 270 0.0 1.0 0.00 0.00 0.00 71 1011.1
20260902161822 92 171 0.0 1.0 0.00 0.00 0.00 69 1011.1
20260902161215 91 173 0.0 1.0 0.00 0.00 0.00 72 1011.1
20260902160043 91 255 2.0 3.0 0.00 0.00 0.00 72 1011.1
20260902155438 90 295 2.0 3.0 0.00 0.00 0.00 74 1011.1
20260902154817 90 282 1.0 2.0 0.00 0.00 0.00 72 1011.1
20260902154230 90 178 2.0 2.0 0.00 0.00 0.00 76 1011.5
20260902153033 89 135 1.0 2.0 0.00 0.00 0.00 74 1011.5
20260902152412 88 88 1.0 1.0 0.00 0.00 0.00 75 1011.1
20260902151838 87 181 1.0 1.0 0.00 0.00 0.00 78 1011.1
20260902150029 85 177 1.0 1.0 0.00 0.00 0.00 84 1011.1
20260902145445 84 178 1.0 1.0 0.00 0.00 0.00 87 1011.1
20260902144233 83 157 1.0 1.0 0.00 0.00 0.00 91 1011.1
20260902143627 82 149 0.0 0.0 0.00 0.00 0.00 93 1010.8
20260902143043 81 135 0.0 0.0 0.00 0.00 0.00 92 1010.8
20260902142438 81 157 0.0 1.0 0.00 0.00 0.00 94 1011.1
20260902141822 81 148 0.0 0.0 0.00 0.00 0.00 96 1010.8
20260902141225 80 153 0.0 0.0 0.00 0.00 0.00 96 1011.1
20260902140643 79 152 0.0 0.0 0.00 0.00 0.00 97 1011.1
20260902140014 78 150 0.0 0.0 0.00 0.00 0.00 98 1011.1
20260902135430 78 154 0.0 0.0 0.00 0.00 0.00 99 1011.1
20260902134845 77 160 0.0 1.0 0.00 0.00 0.00 99 1010.8
20260902134207 76 144 0.0 0.0 0.00 0.00 0.00 99 1011.1
20260902133612 76 149 0.0 0.0 0.00 0.00 0.00 99 1011.1
20260902133016 75 153 1.0 1.0 0.00 0.00 0.00 99 1010.8
20260902132406 75 149 0.0 0.0 0.00 0.00 0.00 99 1011.1
20260902131229 74 152 0.0 0.0 0.00 0.00 0.00 99 1010.8
20260902130010 73 151 0.0 0.0 0.00 0.00 0.00 99 1010.8
20260902125429 73 152 0.0 0.0 0.00 0.00 0.00 99 1010.8
20260902123634 72 149 0.0 0.0 0.00 0.00 0.00 99 1010.8
20260902122449 72 149 0.0 0.0 0.00 0.00 0.00 99 1010.8
20260902121822 72 149 0.0 0.0 0.00 0.00 0.00 99 1010.8
20260902121239 72 149 0.0 0.0 0.00 0.00 0.00 99 1010.4
20260902120627 71 149 0.0 0.0 0.00 0.00 0.00 99 1010.8
20260902120044 71 149 0.0 0.0 0.00 0.00 0.00 99 1010.4
20260902115429 71 149 0.0 0.0 0.00 0.00 0.00 99 1010.8
20260902114825 71 153 0.0 0.0 0.00 0.00 0.00 99 1010.4
20260902114231 71 154 0.0 0.0 0.00 0.00 0.00 99 1010.4
20260902113642 71 155 0.0 0.0 0.00 0.00 0.00 99 1010.4
20260902113050 71 155 0.0 0.0 0.00 0.00 0.00 99 1010.4
20260902112431 71 155 0.0 0.0 0.00 0.00 0.00 99 1010.4
20260902111830 71 155 0.0 0.0 0.00 0.00 0.00 99 1010.4
20260902111235 71 156 0.0 0.0 0.00 0.00 0.00 99 1010.4
20260902110637 71 155 0.0 0.0 0.00 0.00 0.00 99 1010.4
20260902110025 71 155 0.0 0.0 0.00 0.00 0.00 99 1010.4
20260902105423 71 155 0.0 0.0 0.00 0.00 0.00 99 1010.4
20260902104809 71 155 0.0 0.0 0.00 0.00 0.00 99 1010.4
20260902103049 71 154 0.0 0.0 0.00 0.00 0.00 99 1010.4
20260902102410 71 154 0.0 0.0 0.00 0.00 0.00 99 1010.4
20260902101226 71 154 0.0 0.0 0.00 0.00 0.00 99 1010.1
20260902100647 71 154 0.0 0.0 0.00 0.00 0.00 99 1010.1
20260902100047 71 154 0.0 0.0 0.00 0.00 0.00 99 1010.1
20260902095431 71 153 0.0 0.0 0.00 0.00 0.00 99 1010.1
20260902094845 71 152 0.0 0.0 0.00 0.00 0.00 99 1010.1
20260902094218 71 151 0.0 0.0 0.00 0.00 0.00 99 1010.1
20260902093642 71 156 0.0 0.0 0.00 0.00 0.00 99 1010.1
20260902093025 71 156 0.0 0.0 0.00 0.00 0.00 99 1010.1
20260902092418 72 156 0.0 0.0 0.00 0.00 0.00 99 1010.1
20260902091820 72 156 0.0 0.0 0.00 0.00 0.00 99 1010.1
20260902091216 72 156 0.0 0.0 0.00 0.00 0.00 99 1010.1
20260902090613 72 156 0.0 0.0 0.00 0.00 0.00 99 1010.1
20260902090043 72 156 0.0 0.0 0.00 0.00 0.00 99 1010.4
20260902085434 72 156 0.0 0.0 0.00 0.00 0.00 99 1010.1
20260902084839 72 156 0.0 0.0 0.00 0.00 0.00 99 1010.1
20260902084212 72 156 0.0 0.0 0.00 0.00 0.00 99 1010.1
20260902083624 72 156 0.0 0.0 0.00 0.00 0.00 99 1010.1
20260902083037 72 156 0.0 0.0 0.00 0.00 0.00 99 1009.8
20260902082429 72 155 0.0 0.0 0.00 0.00 0.00 99 1009.8
20260902081822 72 155 0.0 0.0 0.00 0.00 0.00 99 1009.4
20260902080610 72 156 0.0 0.0 0.00 0.00 0.00 99 1009.8
20260902080014 72 155 0.0 0.0 0.00 0.00 0.00 99 1009.4
20260902074229 72 156 0.0 0.0 0.00 0.00 0.00 99 1009.4
20260902073616 72 151 0.0 0.0 0.00 0.00 0.00 99 1009.4
20260902073027 72 148 0.0 0.0 0.00 0.00 0.00 99 1009.4
20260902072443 72 148 0.0 0.0 0.00 0.00 0.00 99 1009.4
20260902071828 72 147 0.0 0.0 0.00 0.00 0.00 99 1009.4
20260902071230 72 145 0.0 0.0 0.00 0.00 0.00 99 1009.1
20260902070644 72 153 0.0 0.0 0.00 0.00 0.00 99 1009.4
20260902070017 73 149 0.0 0.0 0.00 0.00 0.00 99 1009.4
20260902065448 73 149 0.0 0.0 0.00 0.00 0.00 99 1009.4
20260902064838 73 147 0.0 0.0 0.00 0.00 0.00 99 1009.4
20260902064248 73 148 0.0 0.0 0.00 0.00 0.00 99 1009.4
20260902063632 73 154 0.0 0.0 0.00 0.00 0.00 99 1009.8
20260902063027 73 153 0.0 0.0 0.00 0.00 0.00 99 1009.8
20260902062406 73 153 0.0 0.0 0.00 0.00 0.00 99 1009.4
20260902061837 73 153 0.0 0.0 0.00 0.00 0.00 99 1009.8
20260902061209 73 153 0.0 0.0 0.00 0.00 0.00 99 1009.4
20260902060040 73 153 0.0 0.0 0.00 0.00 0.00 99 1009.4
20260902055429 73 153 0.0 0.0 0.00 0.00 0.00 99 1009.8
20260902054236 74 152 0.0 0.0 0.00 0.00 0.00 99 1009.4
20260902053613 74 149 0.0 0.0 0.00 0.00 0.00 99 1009.4
20260902053036 74 149 0.0 0.0 0.00 0.00 0.00 99 1009.4
20260902051834 74 150 0.0 0.0 0.00 0.00 0.00 99 1009.4
20260902051227 74 144 0.0 0.0 0.00 0.00 0.00 99 1009.4
20260902050618 74 143 0.0 0.0 0.00 0.00 0.00 99 1009.4
20260902050045 74 139 0.0 0.0 0.00 0.00 0.00 99 1009.4
20260902045448 74 144 0.0 0.0 0.00 0.00 0.00 99 1009.1
20260902044823 74 143 0.0 0.0 0.00 0.00 0.00 99 1009.4
20260902044213 75 144 0.0 0.0 0.00 0.00 0.00 99 1009.1
20260902043043 75 142 0.0 0.0 0.00 0.00 0.00 99 1009.1
20260902042435 75 139 0.0 0.0 0.00 0.00 0.00 99 1009.1
20260902041818 75 134 0.0 0.0 0.00 0.00 0.00 99 1008.8
20260902041251 75 139 0.0 0.0 0.00 0.00 0.00 99 1008.8
20260902040647 75 139 0.0 0.0 0.00 0.00 0.00 99 1009.1
20260902040038 75 137 0.0 0.0 0.00 0.00 0.00 99 1009.1
20260902035430 75 140 0.0 0.0 0.00 0.00 0.00 99 1009.1
20260902034242 76 138 0.0 0.0 0.00 0.00 0.00 99 1009.1
20260902033647 76 139 0.0 0.0 0.00 0.00 0.00 99 1009.1
20260902033012 76 138 0.0 0.0 0.00 0.00 0.00 99 1009.1
20260902032448 76 132 0.0 0.0 0.00 0.00 0.00 99 1009.1
20260902031839 76 101 0.0 0.0 0.00 0.00 0.00 99 1009.1
20260902031230 76 139 0.0 0.0 0.00 0.00 0.00 99 1009.1
20260902030631 76 146 0.0 0.0 0.00 0.00 0.00 99 1009.1
20260902030014 76 148 0.0 0.0 0.00 0.00 0.00 99 1009.1
20260902024214 76 148 0.0 0.0 0.00 0.00 0.00 99 1009.4
20260902023023 76 148 0.0 0.0 0.00 0.00 0.00 98 1009.1
20260902021816 77 148 0.0 0.0 0.00 0.00 0.00 98 1009.1
20260902021246 77 148 0.0 0.0 0.00 0.00 0.00 98 1009.1
20260902020623 77 148 0.0 0.0 0.00 0.00 0.00 98 1009.1
20260902020023 77 148 0.0 0.0 0.00 0.00 0.00 98 1009.1
20260902015432 77 148 0.0 0.0 0.00 0.00 0.00 97 1009.1
20260902014811 77 148 0.0 0.0 0.00 0.00 0.00 97 1009.1
20260902014231 78 148 0.0 0.0 0.00 0.00 0.00 97 1008.8
20260902013647 78 147 0.0 0.0 0.00 0.00 0.00 96 1009.1
20260902013044 78 132 0.0 0.0 0.00 0.00 0.00 96 1008.8
20260902012426 78 132 0.0 0.0 0.00 0.00 0.00 96 1008.8
20260902011824 78 129 0.0 0.0 0.00 0.00 0.00 96 1008.8
20260902011249 79 146 0.0 0.0 0.00 0.00 0.00 95 1008.8
20260902010627 79 151 0.0 0.0 0.00 0.00 0.00 96 1008.8
20260902004807 79 142 0.0 0.0 0.00 0.00 0.00 94 1008.8
20260902004231 80 148 0.0 0.0 0.00 0.00 0.00 93 1008.8
20260902003648 80 139 0.0 0.0 0.00 0.00 0.00 92 1008.8
20260902003026 80 149 0.0 0.0 0.00 0.00 0.00 92 1008.8
20260902001832 81 144 0.0 0.0 0.00 0.00 0.00 90 1008.8
20260902001250 82 142 0.0 0.0 0.00 0.00 0.00 89 1008.4
20260902000646 82 147 0.0 0.0 0.00 0.00 0.00 88 1008.4
20260902000008 83 142 0.0 0.0 0.00 0.00 0.00 86 1008.4
20260901235425 84 148 0.0 0.0 0.00 0.00 0.00 84 1008.8
20260901234817 86 146 0.0 0.0 0.00 0.00 0.00 81 1008.4
20260901234248 87 147 0.0 0.0 0.00 0.00 0.00 78 1008.8
20260901233618 88 148 0.0 0.0 0.00 0.00 0.00 76 1008.8
20260901233023 90 148 0.0 0.0 0.00 0.00 0.00 73 1008.8
20260901232439 91 143 0.0 0.0 0.00 0.00 0.00 71 1008.8
20260901231820 92 146 0.0 0.0 0.00 0.00 0.00 69 1008.4
20260901231211 92 150 0.0 0.0 0.00 0.00 0.00 69 1008.4
20260901230012 93 149 0.0 0.0 0.00 0.00 0.00 69 1008.4
20260901224843 93 144 0.0 0.0 0.00 0.00 0.00 68 1008.4
20260901224227 93 352 2.0 2.0 0.00 0.00 0.00 63 1008.1
20260901223610 93 215 2.0 2.0 0.00 0.00 0.00 62 1008.1
20260901223026 93 136 1.0 1.0 0.00 0.00 0.00 62 1008.1
20260901222408 93 140 1.0 1.0 0.00 0.00 0.00 62 1007.7
20260901221818 93 318 2.0 3.0 0.00 0.00 0.00 61 1008.1
20260901221208 93 346 2.0 2.0 0.00 0.00 0.00 62 1008.1
20260901220050 94 355 2.0 4.0 0.00 0.00 0.00 58 1008.1
20260901215424 94 338 1.0 1.0 0.00 0.00 0.00 57 1008.4
20260901214808 95 303 2.0 3.0 0.00 0.00 0.00 58 1008.1
20260901214217 95 277 1.0 1.0 0.00 0.00 0.00 56 1008.4
20260901213621 96 25 2.0 2.0 0.00 0.00 0.00 57 1008.4
20260901213041 98 273 2.0 3.0 0.00 0.00 0.00 57 1008.4
20260901212422 97 194 0.0 1.0 0.00 0.00 0.00 61 1008.8
20260901211846 96 188 1.0 1.0 0.00 0.00 0.00 61 1008.8
20260901211230 98 184 1.0 1.0 0.00 0.00 0.00 59 1008.8
20260901210641 99 189 1.0 1.0 0.00 0.00 0.00 59 1008.8
20260901210006 98 158 1.0 1.0 0.00 0.00 0.00 52 1008.8
20260901205447 98 263 1.0 1.0 0.00 0.00 0.00 56 1008.8
20260901204809 97 196 1.0 1.0 0.00 0.00 0.00 59 1009.1
20260901204240 97 188 0.0 1.0 0.00 0.00 0.00 58 1009.1
20260901203613 97 184 1.0 2.0 0.00 0.00 0.00 55 1009.1
20260901203012 96 143 2.0 2.0 0.00 0.00 0.00 56 1009.1
20260901202421 97 210 1.0 1.0 0.00 0.00 0.00 60 1009.1
20260901201234 95 206 2.0 2.0 0.00 0.00 0.00 53 1009.1
20260901200609 97 204 4.0 6.0 0.00 0.00 0.00 54 1009.1
20260901200012 97 195 1.0 1.0 0.00 0.00 0.00 56 1009.4
20260901195425 95 209 1.0 2.0 0.00 0.00 0.00 57 1009.4
20260901194829 95 204 1.0 2.0 0.00 0.00 0.00 58 1009.4
20260901194241 94 159 1.0 1.0 0.00 0.00 0.00 64 1009.4
20260901193608 94 179 1.0 1.0 0.00 0.00 0.00 65 1009.4
20260901193026 93 153 0.0 0.0 0.00 0.00 0.00 69 1009.8
20260901192409 92 124 0.0 0.0 0.00 0.00 0.00 69 1009.8
20260901191832 93 184 1.0 1.0 0.00 0.00 0.00 62 1009.8
20260901191242 94 196 3.0 4.0 0.00 0.00 0.00 63 1010.1
20260901190629 94 212 4.0 8.0 0.00 0.00 0.00 58 1010.1
20260901190017 93 215 3.0 4.0 0.00 0.00 0.00 61 1009.8
20260901185410 93 226 4.0 4.0 0.00 0.00 0.00 59 1010.1
20260901184216 93 208 3.0 3.0 0.00 0.00 0.00 65 1009.8
20260901183627 93 191 1.0 2.0 0.00 0.00 0.00 63 1010.1
20260901181814 91 223 3.0 4.0 0.00 0.00 0.00 67 1010.4
20260901181235 92 206 1.0 2.0 0.00 0.00 0.00 67 1010.4
20260901180639 92 249 2.0 2.0 0.00 0.00 0.00 65 1010.1
20260901180039 92 195 2.0 2.0 0.00 0.00 0.00 66 1010.1
20260901175425 90 172 0.0 0.0 0.00 0.00 0.00 74 1010.4
20260901174239 88 272 1.0 1.0 0.00 0.00 0.00 71 1010.8
20260901171834 92 324 2.0 3.0 0.00 0.00 0.00 67 1010.8
20260901171219 92 197 3.0 4.0 0.00 0.00 0.00 69 1011.1